User: anonymous   Login
Location: Newark
(33.6333°S, 78.8500°W)
Time: 08:10:34
(UTC+00:00)
Language:

Altair - Orbit

View from above orbital plane
View from above orbital plane
View from above satellite
View from above satellite

Ground track
Ground track

The orbit data is extracted from the following two-line orbital elements,

1    50U 60009B   19258.86264953 -.00000099 +00000-0 -13259-3 0  9991
2    50 047.2303 256.6091 0114127 224.7110 134.4433 12.20109678636573
Epoch (UTC): 15 September 2019 20:42:12
Eccentricity: 0.0114127
inclination: 47.2303°
perigee height: 1501 km
apogee height: 1683 km
right ascension of ascending node: 256.6091°
argument of perigee: 224.7110°
revolutions per day: 12.20109678
mean anomaly at epoch: 134.4433°
orbit number at epoch: 63657

The dashed part of the orbit path shows where the satellite is in the earth's shadow,  

DLR